Retour au catalogue

THORAD AGENA D DEB

ActifPO
NORAD 4855·DEBRIS·🇺🇸 United States

Lancé Apr 8, 1970 depuis Vandenberg Space Force Base

Loading…

Prochains Passages (prochaines 24 heures)

TLE

FraisSource: Space-Track

Époque: Sep 13, 2026, 20:54 UTC

1 04855U 70025EK  26256.87097979  .00000424  00000-0  49579-3 0  9990
2 04855  99.9577 213.8529 0013997 186.6244 230.0668 13.74902053809163

Suivez THORAD AGENA D DEB en temps réel avec AllMySat

Download on the App Store